EW5542 Weather Reports


Display with metric or nautical units.
time (UTC)temp
F
wind
direction
speed
MPH
gust
MPH
rain 1hr
in
rain 24hr
in
rain mn
in
humidity
%
barometer
mb
20260504081525 59 109 0.0 10.0 0.00 0.09 0.09 80 1008.7
20260504044604 64 190 3.0 16.0 0.00 0.00 0.00 61 1008.5
20260504043058 64 182 0.0 14.0 0.00 0.00 0.00 60 1008.6
20260504041553 64 202 2.0 13.0 0.00 0.00 0.00 59 1009.1
20260504040105 64 194 2.0 12.0 0.00 0.00 0.00 58 1009.2
20260504034611 65 185 3.0 16.0 0.00 0.00 0.00 57 1009.2
20260504033050 65 162 1.0 21.0 0.00 0.00 0.00 57 1009.1
20260504031549 65 168 6.0 19.0 0.00 0.00 0.00 56 1009.1
20260504030113 65 162 8.0 18.0 0.00 0.00 0.00 55 1009.1
20260504024554 66 127 4.0 14.0 0.00 0.00 0.00 54 1009.3
20260504023047 66 185 7.0 19.0 0.00 0.00 0.00 54 1009.3
20260504021551 66 177 1.0 20.0 0.00 0.00 0.00 54 1009.2
20260504020045 66 132 6.0 21.0 0.00 0.00 0.00 53 1009.2
20260504014646 66 134 4.0 17.0 0.00 0.00 0.00 52 1009.0
20260504013050 66 143 2.0 16.0 0.00 0.00 0.00 52 1009.1
20260504011544 67 149 6.0 15.0 0.00 0.00 0.00 51 1008.9
20260504010043 68 133 0.0 15.0 0.00 0.00 0.00 49 1009.0
20260504004542 68 134 5.0 18.0 0.00 0.00 0.00 49 1009.0
20260504003041 69 180 3.0 15.0 0.00 0.00 0.00 48 1009.1
20260504001554 69 144 1.0 13.0 0.00 0.00 0.00 47 1009.1
20260504000039 70 148 0.0 19.0 0.00 0.00 0.00 45 1009.3
20260503234537 71 195 4.0 14.0 0.00 0.00 0.00 43 1009.4
20260503233039 71 146 5.0 12.0 0.00 0.00 0.00 42 1009.7
20260503231536 71 177 2.0 20.0 0.00 0.00 0.00 42 1009.6
20260503230032 71 188 11.0 22.0 0.00 0.00 0.00 41 1009.8
20260503224533 71 144 7.0 22.0 0.00 0.00 0.00 40 1010.0
20260503223030 71 136 7.0 22.0 0.00 0.00 0.00 41 1010.0
20260503221529 71 189 8.0 20.0 0.00 0.00 0.00 40 1010.1
20260503220027 71 133 4.0 19.0 0.00 0.00 0.00 41 1010.2
20260503214524 71 162 13.0 21.0 0.00 0.00 0.00 40 1010.2
20260503213022 70 136 9.0 24.0 0.00 0.00 0.00 40 1010.4
20260503211525 70 190 7.0 21.0 0.00 0.00 0.00 41 1010.7
20260503210017 70 170 7.0 22.0 0.00 0.00 0.00 40 1011.0
20260503204513 69 154 10.0 25.0 0.00 0.01 0.00 40 1011.6
20260503203011 69 185 7.0 20.0 0.00 0.01 0.00 40 1011.6
20260503201508 68 135 1.0 28.0 0.00 0.01 0.00 42 1012.1
20260503200005 68 148 3.0 18.0 0.00 0.01 0.00 43 1012.4
20260503194501 68 146 14.0 28.0 0.00 0.01 0.00 43 1013.0
20260503193112 67 180 11.0 22.0 0.00 0.01 0.00 45 1013.4
20260503191558 66 135 3.0 20.0 0.00 0.01 0.00 46 1013.7
20260503190105 65 163 9.0 22.0 0.00 0.01 0.00 46 1014.3
20260503184551 65 156 10.0 21.0 0.00 0.01 0.00 46 1014.9
20260503183058 65 190 2.0 22.0 0.00 0.01 0.00 47 1015.2
20260503181543 64 191 2.0 22.0 0.00 0.01 0.00 48 1015.5
20260503180051 64 198 14.0 25.0 0.00 0.01 0.00 46 1016.0
20260503174537 64 161 3.0 19.0 0.00 0.06 0.00 49 1016.4
20260503173041 63 123 9.0 24.0 0.00 0.06 0.00 50 1016.9
20260503171539 62 156 8.0 23.0 0.00 0.06 0.00 51 1017.2
20260503140118 54 190 9.0 21.0 0.00 0.06 0.00 64 1019.2